Location: Observatory
(52.1446°N, 0.4624°W)
Time: 20:55:07
(UTC+00:00)

ISS - Pass Details

Date: 31 October 2021
Orbit: 417 x 423 km, 51.6° (Epoch: 30 November)

Event Time Altitude Azimuth Distance (km) Brightness Sun altitude
Exits shadow 05:53:40 15° 273° (W) 1,253 -2.0 -9.9°
Maximum altitude 05:56:26 80° 187° (S) 432 -3.7 -9.5°
Drops below altitude 10° 05:59:48 10° 100° (E) 1,500 0.8 -9.0°
Sets 06:01:47 0° 100° (E) 2,318 2.5 -8.7°
